Flag for Germany

Past Weather in Achim, Lower Saxony, Germany — Yesterday and Last 2 Weeks

Now
70 °F

Sunny.


Feels Like: 70 °F
Forecast: 80 / 68 °F
Wind: 9 mph from East

Location: Bremen Airport
Current Time: Aug 13, 2020 at 8:26:07 am
Latest Report: Aug 13, 2020 at 7:50 am
Visibility: 10 mi
Pressure29.92 "Hg
Humidity: 60%
Dew Point: 55 °F
Location of AchimLocation

Past Weather in Achim — Graph

°F

Achim Temperature Yesterday

Maximum temperature yesterday: 91 °F (at 3:20 pm)
Minimum temperature yesterday: 66 °F (at 5:20 am)
Average temperature yesterday: 80 °F

High & Low Weather Summary for the Past Weeks

 TemperatureHumidityPressure
High93 °F (Aug 8, 1:50 pm)100% (Jul 30, 4:20 am)30.18 "Hg (Jul 30, 4:20 am)
Low46 °F (Jul 30, 4:20 am)24% (Aug 7, 2:20 pm)29.89 "Hg (Aug 1, 10:20 am)
Average72 °F59%30.03 "Hg
* Reported Jul 29 7:20 am — Aug 13 7:20 am, Achim. Weather by CustomWeather, © 2020

Note: Actual official high and low records may vary slightly from our data, if they occured in-between our weather recording intervals... More about our weather records

Achim Weather History for the Previous 24 Hours

Scroll right to see more
 ConditionsComfort  
Time TempWeatherWind HumidityBarometerVisibility
7:20 am
Thu, Aug 13
68 °FSunny.8 mph64%29.95 "Hg10 mi
6:50 am66 °FSunny.7 mph64%29.92 "Hg10 mi
6:20 am68 °FSunny.3 mph60%29.95 "Hg10 mi
5:50 am68 °FClear.5 mph56%29.92 "Hg10 mi
5:20 am70 °FClear.3 mph53%29.92 "Hg10 mi
4:50 am68 °FClear.8 mph56%29.92 "Hg10 mi
4:20 am70 °FClear.10 mph53%29.92 "Hg10 mi
3:50 am70 °FClear.10 mph53%29.92 "Hg10 mi
3:20 am70 °FClear.9 mph53%29.95 "Hg10 mi
2:50 am70 °FClear.8 mph57%29.95 "Hg10 mi
1:50 am72 °FClear.8 mph53%29.98 "Hg10 mi
1:20 am73 °FClear.8 mph50%29.98 "Hg10 mi
12:50 am73 °FClear.8 mph50%29.98 "Hg10 mi
12:20 am75 °FClear.8 mph47%29.98 "Hg10 mi
11:50 pm
Wed, Aug 12
77 °FClear.9 mph44%29.98 "Hg10 mi
11:20 pm77 °FClear.9 mph44%29.98 "Hg10 mi
10:50 pm79 °FClear.9 mph45%29.98 "Hg10 mi
10:20 pm81 °FClear.9 mph42%29.98 "Hg10 mi
9:50 pm82 °FClear.10 mph40%29.95 "Hg10 mi
9:20 pm82 °FClear.12 mph40%29.95 "Hg10 mi
8:50 pm84 °FSunny.10 mph35%29.95 "Hg10 mi
8:20 pm84 °FSunny.7 mph35%29.95 "Hg10 mi
7:50 pm86 °FSunny.9 mph31%29.95 "Hg10 mi
7:20 pm90 °FPassing clouds.7 mph29%29.95 "HgN/A
6:50 pm90 °FPassing clouds.10 mph29%29.95 "HgN/A
6:20 pm90 °FPassing clouds.10 mph27%29.95 "HgN/A
5:50 pm91 °FPassing clouds.10 mph28%29.95 "HgN/A
5:20 pm90 °FPassing clouds.13 mph29%29.98 "HgN/A
4:50 pm90 °FSunny.14 mph29%29.98 "Hg10 mi
4:20 pm91 °FPassing clouds.12 mph30%29.98 "HgN/A
3:50 pm91 °FPassing clouds.14 mph32%29.98 "HgN/A
3:20 pm91 °FPassing clouds.10 mph30%29.98 "HgN/A
2:50 pm90 °FPassing clouds.14 mph27%30.01 "HgN/A
2:20 pm90 °FPassing clouds.13 mph29%30.01 "HgN/A
1:50 pm90 °FPassing clouds.18 mph29%30.01 "HgN/A
1:20 pm88 °FPassing clouds.16 mph31%30.04 "HgN/A
12:50 pm88 °FPassing clouds.16 mph33%30.04 "HgN/A
12:20 pm88 °FPassing clouds.14 mph38%30.04 "HgN/A
11:50 am86 °FPassing clouds.13 mph40%30.04 "HgN/A
11:20 am84 °FPassing clouds.12 mph45%30.04 "HgN/A
10:50 am82 °FPassing clouds.12 mph48%30.04 "HgN/A
10:20 am81 °FSunny.10 mph51%30.04 "Hg10 mi
9:50 am79 °FPassing clouds.9 mph54%30.04 "HgN/A
9:20 am75 °FPassing clouds.9 mph57%30.04 "HgN/A
8:50 am73 °FPassing clouds.12 mph61%30.04 "HgN/A
8:20 am72 °FPassing clouds.8 mph65%30.07 "HgN/A
Weather by CustomWeather, © 2020

See weather overview